Content
SEND FEEDBACK

Daily
Averages
Monthly
Summary
Canada

BIBLE HILL, NOVA SCOTIA


Home > North America > Canada > Nova Scotia
Elevation: 131 feet     Latitude: 45 22N     Longitude: 063 16W

WEATHER
 
SELECT A DAY
Number of Records: 96,649;   Date Range: 6/19/04 - 7/8/14
 
SHARE

PRINT THIS DATA

[ ← Previous Day ]
WEATHER ALMANAC - JULY 6, 2013
[ Next Day → ]
[ °C ]   °F
Weather ElementAverageHighLow
Temperature68.3 °F78.6 °F (2:00 pm)55 °F (6:00 am)
Dewpoint61.8 °F67.3 °F (1:00 pm)53.2 °F (6:00 am)
Humidity79.9 %94 % (4:00 am)58 % (3:00 pm)
Barometer29.89 in29.95 in (5:00 am)29.81 in (9:00 pm)
Wind Speed6.6 mph16.1 mph (4:00 pm)
Wind Gust23 mph (4:00 pm)
Weather ElementAverage
Wind DirectionSW (226.5 °)

Weather ElementTotal
Precipitation---
Cooling Degree Days1.8 (Base 65)
Growing Degree Days16.8 (Base 50)
Averaged from 27 records on July 6, 2013
WEATHER CONDITIONS BREAKOUT
WIND DIRECTION BREAKOUT
WEATHER BY HOUR - JULY 6, 2013
[ °C ]   °F
Local TimeTemperatureDewpointHumidityBarometerVisibilityWind DirectionWind SpeedGust SpeedPrecipitationEventsConditions
1:00 AM60.4 °F57.2 °F89 %29.93 inNW (310°)2.3 mph
2:00 AM59.5 °F56.8 °F91 %29.94 inWSW (250°)1.2 mph
3:00 AM58.0 °F55.0 °F88 %29.94 inCalm
3:00 AM57.6 °F55.4 °F92 %29.94 inCalm
4:00 AM56.5 °F54.7 °F94 %29.94 inNorth (350°)1.2 mph
5:00 AM56.1 °F54.3 °F94 %29.95 inCalm
6:00 AM55.0 °F53.2 °F94 %29.94 inENE (60°)3.5 mph
7:00 AM57.7 °F55.0 °F91 %29.94 inNE (50°)1.2 mph
8:00 AM64.9 °F60.1 °F84 %29.94 inWSW (250°)1.2 mph
9:00 AM70.0 °F63.0 °F72 %29.93 inWest (260°)8.1 mph
9:00 AM69.8 °F62.8 °F78 %29.93 inWest (260°)8.1 mph
10:00 AM72.7 °F63.5 °F73 %29.92 inWSW (240°)8.1 mph
11:00 AM73.8 °F64.9 °F74 %29.91 inWSW (240°)11.5 mph
12:00 PM74.3 °F66.0 °F75 %29.90 inWest (260°)15.0 mph21.9 mph
1:00 PM78.1 °F67.3 °F69 %29.89 inWest (260°)11.5 mph
2:00 PM78.6 °F67.3 °F68 %29.88 inWest (260°)13.8 mph19.6 mph
3:00 PM78.0 °F66.0 °F58 %29.86 inWSW (250°)12.7 mph
3:00 PM77.7 °F66.0 °F67 %29.86 inWSW (250°)12.7 mph
4:00 PM77.9 °F64.9 °F64 %29.85 inWest (260°)16.1 mph23.0 mph
5:00 PM77.4 °F66.4 °F69 %29.84 inWSW (250°)10.4 mph
6:00 PM75.4 °F66.0 °F73 %29.82 inWSW (240°)8.1 mph
7:00 PM73.0 °F65.1 °F76 %29.82 inWSW (240°)8.1 mph
8:00 PM70.5 °F64.2 °F80 %29.82 inWSW (250°)8.1 mph
9:00 PM69.0 °F64.0 °F81 %29.81 inWest (270°)4.6 mph
9:00 PM69.3 °F64.4 °F84 %29.81 inWest (270°)4.6 mph
10:00 PM66.9 °F63.5 °F89 %29.83 inWest (280°)3.5 mph
11:00 PM64.8 °F61.9 °F90 %29.83 inWest (280°)3.5 mph
Hourly data recorded from CZDB, located miles away from Bible Hill, Nova Scotia







STORIES FROM OUR PARTNERS